Terminal Aerodrome Forecast
Issued by NWS Cleveland, OH

Home | Current Version | Previous Version | Graphics & Text | Print | Product List | Glossary On
Versions: 1 2 3 4 5 6 7 8 9 10 11 12 13 14 15 16 17 18 19 20 21 22 23 24 25
000
FTUS41 KCLE 180922 AAB
TAFCLE
TAF AMD
KCLE 180922Z 1809/1912 20010KT P6SM SCT120
     FM181100 22010KT P6SM SCT020 BKN050
      TEMPO 1813/1817 BKN020
     FM181700 25012G20KT P6SM BKN050
     FM182100 27012KT P6SM SCT050
     FM190000 25008KT P6SM SCT120=

USA.gov is the U.S. government's official web portal to all federal, state and local government web resources and services.